Seeley, CA

2:21 PM PDT on July 28, 2016 (GMT -0700)
El Centro Naval Air Facility

Weather History for KNJK - December, 2012

Change the Weather History Date:

Wednesday, December 5, 2012

  Actual Average Record
Temperature  
Mean Temperature 66 °F -  
Max Temperature 80 °F 68 °F 80 °F (2000)
Min Temperature 51 °F 45 °F 34 °F (2006)
Growing Degree Days 16 (Base 50)    
Moisture  
Dew Point 45 °F    
Average Humidity 52    
Maximum Humidity 74    
Minimum Humidity 31    
Precipitation  
Precipitation 0.00 in - - ()
Sea Level Pressure  
Sea Level Pressure 30.04 in    
Wind  
Wind Speed 3 mph (NW)    
Max Wind Speed 7 mph    
Max Gust Speed -    
Visibility 10 miles    
Events      
Averages and records for this station are not official NWS values.
T = Trace of Precipitation, MM = Missing Value Source: NWS Daily Summary

Daily Weather History Graph

Daily Weather History Graph

Search for Another Location

Airport or City:

Trip Planner

Search our weather history database for the weather conditions in past years. The results will help you decide how hot, cold, wet, or windy it might be!

Date:

Astronomy

Dec. 05, 2012 Rise Set
Actual Time 6:30 AM PST 4:36 PM PST
Civil Twilight 6:03 AM PST 5:03 PM PST
Nautical Twilight 5:33 AM PST 5:33 PM PST
Astronomical Twilight 5:03 AM PST 6:03 PM PST
Moon 11:13 PM PST (12/5) 11:11 AM PST (12/5)
Length of Visible Light 10h 59m
Length of Day
10h 05m
Waning Gibbous, 58% of the Moon is Illuminated
Dec 5
Waning Gibbous
Dec 6
Last Quarter
Dec 13
New
Dec 19
First Quarter
Dec 28
Full

Hourly Weather History & Observations

Time (PST) Temp. Dew Point Humidity Pressure Visibility Wind Dir Wind Speed Gust Speed Precip Events Conditions
12:56 AM 55.9 °F 44.1 °F 64% 30.14 in 10.0 mi Calm Calm - N/A   Clear
1:56 AM 55.9 °F 44.1 °F 64% 30.14 in 10.0 mi West 3.5 mph - N/A   Clear
2:56 AM 54.0 °F 44.1 °F 69% 30.13 in 10.0 mi West 3.5 mph - N/A   Clear
3:56 AM 54.0 °F 44.1 °F 69% 30.10 in 10.0 mi WSW 5.8 mph - N/A   Clear
4:56 AM 51.1 °F 43.0 °F 74% 30.10 in 10.0 mi West 6.9 mph - N/A   Clear
6:56 AM 52.0 °F 43.0 °F 71% 30.13 in 10.0 mi West 6.9 mph - N/A   Scattered Clouds
7:56 AM 57.0 °F 44.1 °F 62% 30.12 in 10.0 mi Calm Calm - N/A   Scattered Clouds
8:56 AM 64.9 °F 46.0 °F 50% 30.13 in 10.0 mi West 3.5 mph - N/A   Clear
9:56 AM 73.0 °F 46.0 °F 38% 30.13 in 10.0 mi NNW 6.9 mph - N/A   Scattered Clouds
10:16 AM 73.4 °F 46.4 °F 38% 30.07 in 10.0 mi NNW 5.8 mph - N/A   Partly Cloudy
10:56 AM 75.0 °F 48.0 °F 38% 30.09 in 10.0 mi NNE 5.8 mph - N/A   Clear
11:56 AM 77.0 °F 48.9 °F 37% 30.05 in 10.0 mi North 4.6 mph - N/A   Scattered Clouds
12:56 PM 80.1 °F 48.9 °F 34% 30.02 in 10.0 mi NNE 4.6 mph - N/A   Scattered Clouds
1:56 PM 80.1 °F 46.9 °F 31% 29.99 in 10.0 mi North 3.5 mph - N/A   Scattered Clouds
2:56 PM 80.1 °F 48.0 °F 32% 29.98 in 10.0 mi NNE 3.5 mph - N/A   Scattered Clouds
3:56 PM 77.0 °F 46.9 °F 34% 29.97 in 10.0 mi NNE 3.5 mph - N/A   Scattered Clouds
4:56 PM 69.1 °F 46.0 °F 44% 29.96 in 10.0 mi NE 4.6 mph - N/A   Scattered Clouds
5:56 PM 66.0 °F 46.9 °F 50% 29.97 in 10.0 mi Calm Calm - N/A   Scattered Clouds
6:56 PM 64.0 °F 45.0 °F 50% 29.97 in 10.0 mi Calm Calm - N/A   Scattered Clouds
7:56 PM 60.1 °F 44.1 °F 55% 29.98 in 10.0 mi Calm Calm - N/A   Partly Cloudy
8:56 PM 61.0 °F 44.1 °F 54% 29.97 in 10.0 mi Calm Calm - N/A   Scattered Clouds
9:56 PM 59.0 °F 45.0 °F 60% 29.96 in 10.0 mi West 3.5 mph - N/A   Partly Cloudy
10:56 PM 59.0 °F 44.1 °F 58% 29.96 in 10.0 mi SW 3.5 mph - N/A   Partly Cloudy
11:56 PM 55.9 °F 42.1 °F 60% 29.95 in 10.0 mi West 3.5 mph - N/A   Clear